Total_Precipitation_Accumulation
0.02 0.05 0.22 0.27 0.25 0.24 0.26 0.26 0.24 0.22 0.23 0.24 0.25 0.25 0.25 0.25 0.24 0.23 0.23 0.23 0.23 0.25 0.30 0.33 0.35 0.34 0.31 0.30 0.33 0.33 0.31 0.30 0.25 0.21 0.23 0.26 0.24 0.21 0.18 0.16 0.13 0.22 0.28
0.02 0.05 0.18 0.22 0.23 0.25 0.27 0.24 0.21 0.18 0.19 0.20 0.20 0.20 0.20 0.20 0.20 0.21 0.21 0.22 0.23 0.25 0.29 0.30 0.29 0.27 0.25 0.27 0.34 0.34 0.28 0.22 0.18 0.15 0.14 0.14 0.20 0.23 0.21 0.20 0.19 0.27 0.28
0.02 0.05 0.13 0.20 0.22 0.26 0.26 0.22 0.19 0.17 0.16 0.16 0.16 0.17 0.17 0.18 0.18 0.17 0.19 0.22 0.26 0.28 0.27 0.26 0.24 0.24 0.26 0.31 0.30 0.30 0.29 0.21 0.13 0.12 0.10 0.15 0.23 0.26 0.26 0.23 0.22 0.25 0.26
0.01 0.03 0.08 0.18 0.22 0.26 0.26 0.24 0.21 0.18 0.17 0.16 0.15 0.15 0.16 0.17 0.17 0.17 0.18 0.23 0.27 0.33 0.37 0.33 0.27 0.27 0.32 0.33 0.26 0.25 0.30 0.25 0.14 0.08 0.05 0.15 0.32 0.40 0.33 0.30 0.24 0.23 0.26
0.01 0.02 0.08 0.18 0.22 0.26 0.26 0.27 0.26 0.24 0.21 0.19 0.17 0.16 0.17 0.16 0.16 0.16 0.16 0.19 0.24 0.29 0.32 0.33 0.30 0.31 0.31 0.28 0.22 0.23 0.35 0.36 0.21 0.05 0.05 0.09 0.25 0.54 0.36 0.32 0.28 0.25 0.25
0.01 0.03 0.09 0.18 0.25 0.27 0.27 0.30 0.29 0.29 0.27 0.25 0.23 0.21 0.21 0.19 0.18 0.16 0.15 0.15 0.15 0.19 0.24 0.26 0.27 0.30 0.33 0.30 0.25 0.28 0.42 0.50 0.24 0.08 0.10 0.12 0.25 0.50 0.39 0.35 0.32 0.28 0.26
0.02 0.04 0.09 0.20 0.28 0.29 0.30 0.32 0.32 0.33 0.35 0.33 0.32 0.29 0.26 0.23 0.21 0.18 0.18 0.17 0.12 0.12 0.16 0.20 0.24 0.28 0.32 0.33 0.32 0.40 0.52 0.51 0.25 0.23 0.15 0.13 0.27 0.46 0.47 0.41 0.37 0.32 0.29
0.02 0.05 0.12 0.25 0.30 0.30 0.31 0.34 0.36 0.37 0.41 0.42 0.40 0.36 0.31 0.27 0.25 0.24 0.24 0.21 0.16 0.12 0.12 0.13 0.17 0.23 0.26 0.27 0.33 0.46 0.51 0.34 0.13 0.10 0.09 0.11 0.25 0.48 0.67 0.61 0.46 0.38 0.34
0.03 0.07 0.13 0.24 0.31 0.33 0.34 0.36 0.37 0.40 0.43 0.44 0.45 0.42 0.36 0.29 0.27 0.28 0.28 0.23 0.20 0.17 0.15 0.11 0.11 0.13 0.16 0.19 0.26 0.29 0.27 0.19 0.09 0.13 0.10 0.15 0.26 0.56 0.84 0.79 0.60 0.45 0.39
0.07 0.11 0.16 0.24 0.30 0.33 0.37 0.40 0.39 0.41 0.43 0.44 0.46 0.45 0.38 0.32 0.29 0.28 0.25 0.21 0.20 0.20 0.18 0.12 0.11 0.11 0.10 0.11 0.14 0.16 0.13 0.11 0.06 0.12 0.19 0.20 0.22 0.53 0.88 0.87 0.74 0.58 0.49
0.13 0.17 0.20 0.27 0.32 0.34 0.36 0.39 0.42 0.43 0.43 0.42 0.43 0.41 0.40 0.37 0.33 0.29 0.23 0.19 0.19 0.19 0.16 0.15 0.13 0.11 0.08 0.05 0.05 0.08 0.06 0.04 0.09 0.16 0.19 0.17 0.24 0.53 0.88 0.93 0.83 0.71 0.63
0.16 0.19 0.23 0.29 0.34 0.38 0.36 0.39 0.43 0.41 0.39 0.37 0.35 0.35 0.35 0.34 0.32 0.28 0.25 0.22 0.22 0.21 0.18 0.18 0.15 0.10 0.08 0.07 0.09 0.09 0.04 0.03 0.08 0.09 0.10 0.11 0.25 0.54 0.84 0.95 0.93 0.83 0.78
0.17 0.19 0.24 0.31 0.38 0.40 0.38 0.38 0.40 0.38 0.38 0.37 0.34 0.36 0.41 0.41 0.38 0.36 0.33 0.30 0.26 0.23 0.25 0.26 0.24 0.18 0.19 0.20 0.21 0.16 0.10 0.07 0.06 0.06 0.05 0.07 0.17 0.39 0.69 0.89 0.99 0.98 0.98
0.21 0.22 0.25 0.32 0.41 0.43 0.41 0.40 0.38 0.35 0.34 0.34 0.34 0.35 0.40 0.42 0.39 0.36 0.35 0.32 0.30 0.28 0.28 0.30 0.30 0.26 0.22 0.20 0.24 0.21 0.20 0.16 0.10 0.08 0.06 0.07 0.09 0.18 0.35 0.60 0.83 1.00 1.07
0.21 0.24 0.26 0.31 0.40 0.45 0.45 0.43 0.41 0.35 0.31 0.30 0.30 0.30 0.28 0.31 0.33 0.30 0.26 0.22 0.22 0.23 0.23 0.23 0.22 0.23 0.21 0.19 0.20 0.21 0.23 0.22 0.18 0.15 0.12 0.11 0.09 0.11 0.18 0.31 0.53 0.85 1.05
0.21 0.24 0.28 0.32 0.39 0.47 0.45 0.45 0.44 0.41 0.33 0.30 0.29 0.27 0.25 0.24 0.24 0.22 0.18 0.14 0.13 0.13 0.13 0.13 0.11 0.11 0.11 0.14 0.14 0.15 0.15 0.17 0.21 0.23 0.22 0.21 0.14 0.12 0.15 0.23 0.35 0.58 0.87
0.21 0.26 0.30 0.35 0.41 0.47 0.48 0.47 0.47 0.46 0.41 0.35 0.29 0.27 0.25 0.24 0.23 0.22 0.18 0.13 0.11 0.10 0.11 0.10 0.09 0.08 0.07 0.08 0.11 0.12 0.10 0.12 0.16 0.23 0.25 0.26 0.23 0.19 0.17 0.21 0.28 0.40 0.63
0.22 0.28 0.32 0.35 0.43 0.47 0.52 0.52 0.48 0.49 0.44 0.39 0.34 0.31 0.28 0.25 0.24 0.24 0.21 0.17 0.13 0.11 0.11 0.12 0.11 0.10 0.09 0.09 0.11 0.15 0.14 0.13 0.15 0.21 0.27 0.27 0.27 0.24 0.21 0.21 0.27 0.38 0.52
0.23 0.29 0.33 0.34 0.39 0.47 0.53 0.57 0.55 0.50 0.49 0.42 0.39 0.36 0.32 0.31 0.27 0.26 0.26 0.21 0.17 0.17 0.15 0.14 0.13 0.13 0.14 0.13 0.16 0.18 0.20 0.18 0.16 0.19 0.24 0.30 0.32 0.30 0.31 0.24 0.24 0.32 0.45
0.22 0.31 0.36 0.35 0.40 0.49 0.60 0.63 0.63 0.57 0.52 0.47 0.45 0.42 0.39 0.37 0.34 0.30 0.28 0.26 0.21 0.20 0.19 0.17 0.16 0.17 0.17 0.16 0.16 0.16 0.21 0.24 0.25 0.23 0.29 0.40 0.41 0.34 0.34 0.34 0.29 0.24 0.28
0.24 0.31 0.36 0.36 0.41 0.50 0.56 0.62 0.58 0.55 0.51 0.48 0.42 0.45 0.44 0.42 0.40 0.38 0.34 0.30 0.27 0.24 0.21 0.19 0.18 0.16 0.14 0.13 0.15 0.13 0.15 0.18 0.18 0.19 0.25 0.38 0.51 0.54 0.49 0.48 0.47 0.39 0.30
0.23 0.28 0.33 0.35 0.36 0.42 0.44 0.49 0.51 0.48 0.46 0.47 0.42 0.41 0.46 0.44 0.42 0.42 0.39 0.34 0.27 0.24 0.21 0.18 0.17 0.17 0.13 0.09 0.11 0.15 0.12 0.10 0.14 0.14 0.13 0.22 0.34 0.43 0.47 0.50 0.55 0.57 0.48
0.23 0.27 0.30 0.37 0.34 0.37 0.42 0.52 0.55 0.55 0.54 0.53 0.49 0.42 0.41 0.42 0.41 0.38 0.36 0.35 0.31 0.25 0.22 0.19 0.17 0.18 0.18 0.12 0.11 0.24 0.31 0.20 0.12 0.06 0.08 0.13 0.16 0.20 0.25 0.32 0.41 0.47 0.54
0.22 0.29 0.31 0.38 0.42 0.38 0.44 0.51 0.48 0.47 0.49 0.45 0.43 0.40 0.40 0.42 0.40 0.38 0.35 0.32 0.30 0.29 0.26 0.23 0.21 0.18 0.20 0.20 0.14 0.14 0.21 0.25 0.30 0.16 0.04 0.03 0.03 0.05 0.07 0.12 0.21 0.28 0.37
0.23 0.29 0.34 0.38 0.45 0.46 0.45 0.47 0.45 0.39 0.40 0.44 0.47 0.47 0.44 0.45 0.45 0.40 0.35 0.32 0.29 0.27 0.26 0.26 0.26 0.25 0.25 0.25 0.23 0.19 0.16 0.14 0.19 0.30 0.14 0.04 0.04 0.04 0.04 0.06 0.08 0.13 0.21
0.22 0.28 0.32 0.37 0.42 0.50 0.51 0.50 0.45 0.40 0.38 0.44 0.49 0.54 0.52 0.53 0.52 0.47 0.40 0.34 0.28 0.26 0.25 0.26 0.27 0.28 0.28 0.26 0.25 0.25 0.27 0.28 0.22 0.28 0.25 0.08 0.04 0.03 0.04 0.05 0.05 0.07 0.13